User: anonymous   Login
Location: Nebula Knoll Observatory
(43.6666°N, 71.0000°W)
Time: 20:53:09
(UTC-04:00)
Language:

Cosmos 1782 - Orbit

View from above orbital plane
View from above orbital plane
View from above satellite
View from above satellite

Ground track
Ground track

The orbit data is extracted from the following two-line orbital elements,

1 16986U 86074A   17084.82368280 +.00000227 +00000-0 +13381-4 0  9993
2 16986 082.5100 202.3131 0009813 262.3180 097.6933 15.06485683658308
Epoch (UTC): 25 March 2017 19:46:06
Eccentricity: 0.0009813
inclination: 82.5100°
perigee height: 540 km
apogee height: 554 km
right ascension of ascending node: 202.3131°
argument of perigee: 262.3180°
revolutions per day: 15.06485683
mean anomaly at epoch: 97.6933°
orbit number at epoch: 65830

The dashed part of the orbit path shows where the satellite is in the earth's shadow,  

DLR